SGDC

Last updated on Thu Nov 21 2024 00:02:43 GMT+0000 (Coordinated Universal Time)

1 42692U 17023B 24324.04509918 -.00000247 00000+0 00000+0 0 9999 2 42692 0.0589 90.5911 0003298 166.6049 102.7863 1.00271266 27647
UTC large
Height (km)
Speed (km/s)
/
Latitude / Longitude
Inclination (degrees)
Orbital Period (minutes)
Azimuth
Elevation
Range (km)
Doppler Factor

Next 0 passes for location: London (51.5072 / 0.1276)

Sorry there are no passes over London.